User: anonymous
Location: Unspecified
(0.0000°N, 0.0000°E)
Time: 09:27:30
(UTC+00:00)
Language:

NAVSTAR 65 (USA 213) - Orbit

View from above orbital plane
View from above orbital plane
View from above satellite
View from above satellite

Ground track
Ground track

The orbit data is extracted from the following two-line orbital elements,

1 36585U 10022A   14256.52736610 -.00000077  00000-0  00000+0 0  7060
2 36585 055.9813 020.5342 0035130 038.2499 204.6198 02.00578456 31464
Epoch (UTC): 13 September 2014 12:39:24
Eccentricity: 0.0035130
inclination: 55.9813°
perigee height: 20087 km
apogee height: 20274 km
right ascension of ascending node: 20.5342°
argument of perigee: 38.2499°
revolutions per day: 2.00578456
mean anomaly at epoch: 204.6198°
orbit number at epoch: 3146

The dashed part of the orbit path shows where the satellite is in the earth's shadow,  

DLR